QPF
0.01 0.01 0.01 0.04 0.08 0.05 0.02 0.01 0.01 0.01 0.02 0.03 0.03 0.05 0.06 0.06 0.07 0.09 0.11 0.12 0.12 0.11 0.12 0.12 0.11 0.11 0.10 0.10 0.10 0.09 0.09 0.08 0.08 0.06 0.05 0.03 0.02 0.01 0.01 0.00 0.01 0.01 0.01
0.01 0.01 0.01 0.01 0.04 0.06 0.03 0.01 0.01 0.01 0.01 0.02 0.03 0.04 0.04 0.04 0.04 0.04 0.06 0.09 0.11 0.11 0.11 0.11 0.11 0.10 0.09 0.08 0.08 0.08 0.07 0.07 0.07 0.07 0.06 0.05 0.03 0.02 0.01 0.01 0.01 0.01 0.01
0.01 0.01 0.01 0.01 0.02 0.05 0.04 0.02 0.02 0.01 0.01 0.02 0.02 0.02 0.03 0.03 0.03 0.04 0.05 0.06 0.07 0.08 0.08 0.08 0.07 0.08 0.08 0.08 0.07 0.07 0.07 0.06 0.06 0.07 0.06 0.04 0.04 0.03 0.03 0.02 0.02 0.02 0.01
0.01 0.01 0.01 0.01 0.01 0.02 0.04 0.03 0.02 0.01 0.01 0.01 0.01 0.01 0.01 0.02 0.02 0.03 0.05 0.05 0.06 0.07 0.09 0.09 0.08 0.06 0.07 0.08 0.06 0.06 0.06 0.06 0.06 0.06 0.07 0.07 0.05 0.04 0.04 0.03 0.03 0.02 0.02
0.00 0.00 0.00 0.00 0.01 0.01 0.02 0.03 0.02 0.01 0.01 0.01 0.01 0.01 0.02 0.02 0.04 0.05 0.04 0.05 0.06 0.06 0.06 0.07 0.08 0.07 0.08 0.08 0.08 0.07 0.06 0.05 0.05 0.05 0.05 0.07 0.07 0.06 0.04 0.03 0.03 0.03 0.02
0.00 0.00 0.00 0.01 0.01 0.02 0.02 0.03 0.04 0.03 0.02 0.02 0.02 0.03 0.03 0.03 0.04 0.06 0.06 0.05 0.05 0.04 0.04 0.05 0.06 0.07 0.07 0.08 0.08 0.08 0.08 0.07 0.06 0.05 0.04 0.04 0.05 0.04 0.03 0.03 0.03 0.03 0.02
0.00 0.00 0.00 0.01 0.01 0.02 0.02 0.03 0.04 0.05 0.05 0.04 0.05 0.05 0.04 0.04 0.05 0.06 0.06 0.05 0.05 0.04 0.04 0.04 0.04 0.04 0.05 0.05 0.06 0.06 0.07 0.07 0.06 0.06 0.06 0.05 0.04 0.04 0.03 0.03 0.02 0.02 0.02
0.01 0.00 0.00 0.00 0.01 0.01 0.02 0.02 0.02 0.03 0.04 0.05 0.05 0.05 0.05 0.05 0.05 0.05 0.06 0.06 0.06 0.05 0.04 0.04 0.04 0.03 0.04 0.04 0.04 0.04 0.04 0.04 0.05 0.05 0.05 0.05 0.05 0.04 0.03 0.03 0.03 0.03 0.02
0.01 0.01 0.01 0.01 0.01 0.01 0.02 0.02 0.02 0.02 0.03 0.04 0.05 0.05 0.04 0.05 0.05 0.04 0.04 0.05 0.06 0.05 0.04 0.04 0.04 0.04 0.05 0.05 0.04 0.04 0.04 0.04 0.04 0.04 0.05 0.05 0.06 0.05 0.03 0.03 0.03 0.03 0.03
0.01 0.01 0.01 0.01 0.01 0.02 0.02 0.02 0.02 0.02 0.02 0.04 0.06 0.07 0.06 0.05 0.05 0.05 0.05 0.05 0.05 0.04 0.03 0.03 0.03 0.04 0.05 0.05 0.05 0.06 0.06 0.05 0.04 0.04 0.04 0.04 0.04 0.04 0.03 0.02 0.02 0.03 0.04
0.01 0.01 0.01 0.01 0.01 0.02 0.03 0.03 0.03 0.04 0.04 0.05 0.06 0.07 0.09 0.09 0.08 0.07 0.06 0.04 0.04 0.04 0.04 0.03 0.03 0.04 0.05 0.05 0.05 0.05 0.06 0.05 0.03 0.03 0.03 0.03 0.02 0.02 0.02 0.02 0.03 0.04 0.05
0.02 0.02 0.02 0.02 0.02 0.03 0.04 0.04 0.04 0.04 0.04 0.04 0.04 0.06 0.07 0.07 0.07 0.07 0.06 0.04 0.04 0.03 0.04 0.03 0.03 0.04 0.05 0.05 0.04 0.05 0.05 0.04 0.04 0.04 0.04 0.04 0.03 0.02 0.02 0.02 0.03 0.04 0.05
0.02 0.02 0.02 0.02 0.03 0.03 0.04 0.04 0.04 0.03 0.04 0.05 0.05 0.05 0.06 0.05 0.06 0.07 0.06 0.05 0.05 0.04 0.04 0.04 0.04 0.04 0.03 0.04 0.04 0.03 0.03 0.03 0.03 0.04 0.04 0.03 0.03 0.03 0.02 0.02 0.02 0.03 0.04
0.02 0.02 0.02 0.02 0.03 0.03 0.03 0.03 0.04 0.04 0.04 0.04 0.04 0.04 0.05 0.04 0.04 0.05 0.05 0.06 0.06 0.06 0.05 0.04 0.04 0.03 0.02 0.03 0.04 0.03 0.03 0.03 0.03 0.03 0.03 0.03 0.03 0.03 0.03 0.03 0.02 0.02 0.02
0.02 0.02 0.01 0.01 0.02 0.03 0.04 0.05 0.04 0.04 0.04 0.03 0.03 0.03 0.04 0.05 0.06 0.06 0.06 0.05 0.05 0.04 0.04 0.03 0.03 0.03 0.03 0.03 0.04 0.03 0.03 0.04 0.04 0.03 0.03 0.03 0.03 0.03 0.03 0.03 0.03 0.02 0.02
0.02 0.02 0.02 0.02 0.02 0.03 0.04 0.05 0.05 0.04 0.04 0.03 0.03 0.04 0.04 0.05 0.05 0.05 0.04 0.03 0.03 0.03 0.04 0.04 0.04 0.03 0.04 0.04 0.04 0.04 0.04 0.04 0.04 0.03 0.03 0.03 0.03 0.03 0.03 0.03 0.03 0.02 0.03
0.02 0.02 0.02 0.02 0.02 0.03 0.04 0.05 0.04 0.04 0.04 0.03 0.03 0.04 0.04 0.05 0.05 0.04 0.03 0.03 0.03 0.03 0.03 0.03 0.04 0.03 0.03 0.04 0.04 0.04 0.04 0.04 0.04 0.04 0.03 0.03 0.03 0.03 0.03 0.03 0.03 0.03 0.02
0.03 0.02 0.02 0.02 0.02 0.03 0.04 0.04 0.03 0.03 0.03 0.04 0.04 0.04 0.05 0.05 0.05 0.03 0.03 0.03 0.03 0.03 0.03 0.03 0.03 0.03 0.03 0.03 0.03 0.04 0.04 0.04 0.04 0.04 0.03 0.03 0.03 0.03 0.03 0.03 0.03 0.03 0.02
0.03 0.02 0.03 0.03 0.03 0.03 0.03 0.03 0.03 0.03 0.04 0.04 0.04 0.05 0.05 0.06 0.05 0.04 0.03 0.03 0.03 0.03 0.03 0.03 0.03 0.03 0.02 0.02 0.02 0.03 0.03 0.04 0.04 0.03 0.03 0.03 0.03 0.03 0.03 0.03 0.03 0.03 0.02
0.02 0.03 0.03 0.03 0.03 0.03 0.03 0.03 0.03 0.03 0.04 0.04 0.04 0.05 0.05 0.05 0.05 0.04 0.03 0.03 0.02 0.03 0.03 0.03 0.03 0.03 0.02 0.02 0.03 0.02 0.02 0.02 0.03 0.02 0.02 0.03 0.03 0.03 0.03 0.03 0.03 0.03 0.03
0.02 0.02 0.02 0.02 0.02 0.02 0.02 0.02 0.02 0.02 0.03 0.03 0.04 0.04 0.06 0.06 0.05 0.04 0.03 0.03 0.03 0.03 0.03 0.03 0.03 0.03 0.03 0.03 0.03 0.02 0.02 0.02 0.02 0.02 0.02 0.02 0.02 0.02 0.02 0.02 0.02 0.03 0.03
0.03 0.02 0.02 0.02 0.02 0.02 0.02 0.02 0.02 0.02 0.02 0.03 0.03 0.04 0.05 0.05 0.05 0.04 0.04 0.04 0.03 0.03 0.03 0.03 0.03 0.03 0.03 0.03 0.03 0.02 0.02 0.01 0.01 0.01 0.01 0.01 0.01 0.02 0.02 0.02 0.02 0.03 0.03
0.03 0.02 0.02 0.02 0.02 0.02 0.02 0.02 0.02 0.02 0.02 0.03 0.03 0.04 0.05 0.05 0.05 0.04 0.04 0.04 0.04 0.03 0.03 0.04 0.04 0.03 0.03 0.03 0.03 0.02 0.02 0.01 0.01 0.01 0.01 0.01 0.01 0.02 0.02 0.02 0.03 0.03 0.03
0.02 0.02 0.02 0.02 0.02 0.02 0.02 0.02 0.02 0.02 0.02 0.03 0.03 0.04 0.04 0.04 0.04 0.04 0.04 0.04 0.04 0.04 0.04 0.04 0.04 0.03 0.03 0.03 0.03 0.03 0.02 0.01 0.02 0.01 0.01 0.01 0.01 0.02 0.02 0.02 0.03 0.03 0.03
0.02 0.02 0.02 0.02 0.01 0.02 0.02 0.02 0.02 0.02 0.02 0.03 0.03 0.03 0.04 0.04 0.04 0.04 0.04 0.04 0.03 0.03 0.04 0.04 0.04 0.04 0.03 0.03 0.03 0.03 0.02 0.02 0.02 0.02 0.02 0.02 0.02 0.02 0.02 0.02 0.02 0.02 0.02
0.01 0.01 0.01 0.01 0.01 0.01 0.02 0.02 0.02 0.02 0.02 0.02 0.02 0.03 0.03 0.03 0.03 0.03 0.03 0.03 0.03 0.03 0.03 0.03 0.03 0.04 0.03 0.03 0.03 0.03 0.03 0.03 0.03 0.03 0.02 0.02 0.02 0.02 0.02 0.02 0.02 0.02 0.02
MSLP
1013.54 1013.63 1013.65 1013.59 1013.44 1013.21 1012.89 1012.50 1012.05 1011.56 1011.06 1010.55 1010.07 1009.63 1009.26 1008.99 1008.81 1008.75 1008.80 1008.96 1009.20 1009.51 1009.84 1010.19 1010.53 1010.84 1011.14 1011.44 1011.75 1012.09 1012.49 1012.96 1013.47 1014.03 1014.59 1015.13 1015.61 1016.01 1016.30 1016.50 1016.63 1016.72 1016.81
1013.38 1013.48 1013.53 1013.49 1013.38 1013.17 1012.89 1012.52 1012.09 1011.61 1011.09 1010.56 1010.04 1009.57 1009.16 1008.85 1008.66 1008.59 1008.66 1008.84 1009.13 1009.48 1009.88 1010.28 1010.66 1011.01 1011.34 1011.64 1011.95 1012.27 1012.64 1013.06 1013.53 1014.04 1014.56 1015.07 1015.54 1015.94 1016.25 1016.50 1016.68 1016.83 1016.99
1013.20 1013.30 1013.35 1013.33 1013.23 1013.05 1012.79 1012.45 1012.03 1011.56 1011.03 1010.49 1009.95 1009.44 1009.01 1008.68 1008.48 1008.42 1008.52 1008.74 1009.09 1009.52 1009.99 1010.47 1010.92 1011.34 1011.71 1012.03 1012.33 1012.64 1012.96 1013.31 1013.71 1014.14 1014.60 1015.05 1015.49 1015.88 1016.21 1016.50 1016.75 1016.99 1017.24
1013.02 1013.10 1013.13 1013.10 1013.01 1012.85 1012.60 1012.28 1011.88 1011.42 1010.89 1010.34 1009.78 1009.25 1008.80 1008.46 1008.26 1008.22 1008.34 1008.62 1009.04 1009.55 1010.11 1010.69 1011.24 1011.73 1012.16 1012.52 1012.83 1013.11 1013.38 1013.67 1013.98 1014.32 1014.69 1015.08 1015.46 1015.84 1016.19 1016.52 1016.85 1017.19 1017.54
1012.83 1012.87 1012.87 1012.82 1012.73 1012.57 1012.34 1012.04 1011.66 1011.20 1010.68 1010.12 1009.55 1009.01 1008.54 1008.19 1007.98 1007.95 1008.11 1008.44 1008.93 1009.52 1010.18 1010.85 1011.50 1012.08 1012.58 1012.99 1013.32 1013.59 1013.83 1014.05 1014.29 1014.54 1014.83 1015.14 1015.47 1015.83 1016.19 1016.57 1016.98 1017.40 1017.87
1012.63 1012.61 1012.56 1012.49 1012.38 1012.22 1012.01 1011.73 1011.37 1010.93 1010.42 1009.86 1009.28 1008.72 1008.24 1007.87 1007.66 1007.63 1007.81 1008.18 1008.72 1009.38 1010.13 1010.89 1011.63 1012.30 1012.88 1013.35 1013.72 1014.00 1014.22 1014.40 1014.58 1014.77 1014.99 1015.24 1015.53 1015.87 1016.24 1016.66 1017.12 1017.63 1018.18
1012.37 1012.28 1012.18 1012.08 1011.96 1011.81 1011.62 1011.36 1011.03 1010.62 1010.13 1009.57 1008.99 1008.43 1007.92 1007.54 1007.31 1007.28 1007.45 1007.84 1008.41 1009.12 1009.93 1010.76 1011.58 1012.34 1012.99 1013.53 1013.95 1014.26 1014.50 1014.68 1014.83 1014.99 1015.16 1015.38 1015.64 1015.96 1016.35 1016.79 1017.29 1017.85 1018.47
1012.02 1011.86 1011.72 1011.59 1011.47 1011.33 1011.17 1010.95 1010.66 1010.28 1009.82 1009.29 1008.72 1008.15 1007.64 1007.23 1006.98 1006.93 1007.09 1007.46 1008.04 1008.77 1009.60 1010.48 1011.36 1012.18 1012.90 1013.51 1013.99 1014.37 1014.64 1014.85 1015.02 1015.18 1015.35 1015.56 1015.82 1016.14 1016.52 1016.97 1017.49 1018.07 1018.71
1011.57 1011.36 1011.18 1011.04 1010.92 1010.81 1010.68 1010.51 1010.27 1009.95 1009.53 1009.03 1008.48 1007.92 1007.41 1006.99 1006.72 1006.64 1006.77 1007.12 1007.67 1008.39 1009.22 1010.11 1011.02 1011.88 1012.66 1013.33 1013.89 1014.33 1014.68 1014.95 1015.17 1015.37 1015.57 1015.80 1016.07 1016.39 1016.76 1017.21 1017.72 1018.29 1018.91
1011.04 1010.79 1010.59 1010.44 1010.34 1010.26 1010.18 1010.06 1009.88 1009.61 1009.24 1008.80 1008.29 1007.76 1007.26 1006.85 1006.57 1006.46 1006.56 1006.87 1007.38 1008.06 1008.86 1009.74 1010.64 1011.52 1012.34 1013.07 1013.69 1014.21 1014.64 1015.00 1015.30 1015.56 1015.82 1016.09 1016.38 1016.71 1017.08 1017.50 1017.97 1018.50 1019.07
1010.46 1010.18 1009.97 1009.83 1009.75 1009.70 1009.66 1009.60 1009.47 1009.27 1008.97 1008.58 1008.13 1007.65 1007.19 1006.80 1006.53 1006.41 1006.48 1006.75 1007.21 1007.84 1008.59 1009.43 1010.31 1011.18 1012.02 1012.78 1013.46 1014.06 1014.58 1015.02 1015.41 1015.76 1016.09 1016.41 1016.73 1017.07 1017.43 1017.82 1018.25 1018.71 1019.20
1009.88 1009.59 1009.38 1009.24 1009.17 1009.15 1009.15 1009.12 1009.05 1008.90 1008.67 1008.36 1007.98 1007.57 1007.17 1006.83 1006.58 1006.48 1006.54 1006.78 1007.19 1007.76 1008.46 1009.24 1010.07 1010.92 1011.75 1012.53 1013.25 1013.91 1014.50 1015.03 1015.52 1015.95 1016.35 1016.73 1017.09 1017.44 1017.79 1018.15 1018.52 1018.91 1019.31
1009.33 1009.04 1008.83 1008.69 1008.63 1008.62 1008.63 1008.63 1008.59 1008.49 1008.33 1008.09 1007.79 1007.47 1007.15 1006.88 1006.69 1006.62 1006.69 1006.92 1007.30 1007.82 1008.45 1009.17 1009.95 1010.75 1011.55 1012.33 1013.08 1013.77 1014.43 1015.03 1015.59 1016.10 1016.58 1017.01 1017.41 1017.78 1018.12 1018.45 1018.77 1019.08 1019.41
1008.85 1008.56 1008.34 1008.20 1008.12 1008.09 1008.09 1008.10 1008.08 1008.02 1007.91 1007.74 1007.53 1007.30 1007.08 1006.90 1006.79 1006.78 1006.88 1007.12 1007.48 1007.96 1008.55 1009.21 1009.92 1010.67 1011.43 1012.19 1012.93 1013.65 1014.33 1014.99 1015.60 1016.18 1016.71 1017.20 1017.63 1018.02 1018.37 1018.68 1018.96 1019.23 1019.49
1008.42 1008.13 1007.90 1007.73 1007.63 1007.57 1007.54 1007.53 1007.51 1007.47 1007.40 1007.30 1007.17 1007.04 1006.92 1006.84 1006.83 1006.89 1007.05 1007.32 1007.68 1008.14 1008.68 1009.29 1009.95 1010.64 1011.35 1012.07 1012.79 1013.50 1014.20 1014.88 1015.54 1016.16 1016.73 1017.26 1017.73 1018.14 1018.50 1018.81 1019.08 1019.32 1019.54
1008.02 1007.73 1007.48 1007.28 1007.14 1007.04 1006.97 1006.93 1006.89 1006.86 1006.81 1006.76 1006.72 1006.67 1006.66 1006.69 1006.77 1006.92 1007.14 1007.45 1007.83 1008.29 1008.80 1009.37 1009.97 1010.61 1011.27 1011.94 1012.63 1013.32 1014.01 1014.70 1015.37 1016.01 1016.61 1017.17 1017.67 1018.11 1018.49 1018.82 1019.09 1019.34 1019.55
1007.60 1007.31 1007.04 1006.82 1006.64 1006.50 1006.40 1006.32 1006.26 1006.22 1006.20 1006.19 1006.20 1006.24 1006.32 1006.44 1006.62 1006.85 1007.14 1007.49 1007.90 1008.35 1008.85 1009.39 1009.95 1010.54 1011.15 1011.78 1012.43 1013.09 1013.76 1014.43 1015.10 1015.75 1016.37 1016.94 1017.47 1017.94 1018.35 1018.70 1019.00 1019.26 1019.49
1007.12 1006.83 1006.57 1006.34 1006.14 1005.97 1005.83 1005.73 1005.66 1005.61 1005.60 1005.63 1005.69 1005.79 1005.94 1006.14 1006.39 1006.69 1007.04 1007.43 1007.86 1008.33 1008.82 1009.33 1009.87 1010.42 1010.99 1011.58 1012.19 1012.81 1013.45 1014.10 1014.75 1015.39 1016.01 1016.60 1017.14 1017.64 1018.08 1018.46 1018.80 1019.09 1019.35
1006.55 1006.29 1006.05 1005.83 1005.63 1005.45 1005.31 1005.20 1005.12 1005.08 1005.08 1005.13 1005.22 1005.37 1005.57 1005.82 1006.12 1006.47 1006.86 1007.28 1007.73 1008.20 1008.69 1009.19 1009.70 1010.23 1010.77 1011.32 1011.90 1012.49 1013.10 1013.72 1014.35 1014.97 1015.59 1016.17 1016.72 1017.23 1017.70 1018.11 1018.48 1018.81 1019.10
1005.90 1005.68 1005.48 1005.29 1005.12 1004.97 1004.84 1004.74 1004.67 1004.64 1004.66 1004.72 1004.84 1005.01 1005.23 1005.51 1005.83 1006.20 1006.61 1007.04 1007.50 1007.97 1008.45 1008.95 1009.45 1009.96 1010.48 1011.02 1011.57 1012.14 1012.72 1013.31 1013.91 1014.52 1015.11 1015.68 1016.23 1016.75 1017.23 1017.67 1018.06 1018.42 1018.75
1005.19 1005.02 1004.88 1004.74 1004.62 1004.52 1004.43 1004.35 1004.31 1004.30 1004.32 1004.40 1004.52 1004.69 1004.92 1005.20 1005.52 1005.89 1006.29 1006.72 1007.17 1007.64 1008.11 1008.60 1009.10 1009.61 1010.12 1010.65 1011.19 1011.74 1012.30 1012.88 1013.45 1014.03 1014.60 1015.16 1015.69 1016.20 1016.69 1017.14 1017.55 1017.93 1018.28
1004.44 1004.34 1004.25 1004.19 1004.13 1004.08 1004.04 1004.01 1003.99 1004.00 1004.04 1004.11 1004.23 1004.40 1004.61 1004.87 1005.17 1005.51 1005.89 1006.30 1006.74 1007.19 1007.66 1008.15 1008.65 1009.16 1009.68 1010.21 1010.75 1011.29 1011.85 1012.40 1012.96 1013.51 1014.06 1014.59 1015.11 1015.61 1016.09 1016.55 1016.97 1017.36 1017.73
1003.70 1003.64 1003.62 1003.62 1003.63 1003.64 1003.64 1003.65 1003.67 1003.69 1003.74 1003.81 1003.91 1004.06 1004.24 1004.47 1004.74 1005.04 1005.39 1005.77 1006.19 1006.63 1007.09 1007.58 1008.09 1008.60 1009.14 1009.68 1010.22 1010.77 1011.32 1011.87 1012.41 1012.95 1013.48 1013.99 1014.50 1014.98 1015.45 1015.90 1016.33 1016.73 1017.11
1002.98 1002.97 1003.00 1003.04 1003.10 1003.15 1003.20 1003.23 1003.27 1003.31 1003.35 1003.42 1003.51 1003.63 1003.78 1003.97 1004.20 1004.47 1004.79 1005.14 1005.53 1005.96 1006.41 1006.90 1007.41 1007.94 1008.48 1009.04 1009.60 1010.16 1010.72 1011.27 1011.80 1012.33 1012.85 1013.35 1013.84 1014.32 1014.78 1015.23 1015.66 1016.07 1016.46
1002.32 1002.32 1002.37 1002.45 1002.52 1002.60 1002.67 1002.72 1002.76 1002.81 1002.85 1002.91 1002.98 1003.08 1003.20 1003.37 1003.57 1003.81 1004.09 1004.42 1004.79 1005.20 1005.65 1006.13 1006.64 1007.18 1007.74 1008.31 1008.89 1009.46 1010.03 1010.58 1011.13 1011.66 1012.17 1012.67 1013.15 1013.63 1014.09 1014.54 1014.98 1015.40 1015.81
1001.72 1001.73 1001.77 1001.84 1001.92 1001.99 1002.06 1002.11 1002.15 1002.19 1002.23 1002.28 1002.34 1002.43 1002.54 1002.69 1002.87 1003.09 1003.35 1003.66 1004.01 1004.41 1004.84 1005.32 1005.83 1006.37 1006.94 1007.52 1008.10 1008.69 1009.27 1009.83 1010.38 1010.92 1011.44 1011.94 1012.43 1012.91 1013.38 1013.84 1014.29 1014.73 1015.16
Thickness
5481 5483 5484 5486 5487 5488 5489 5492 5493 5495 5496 5498 5500 5503 5506 5510 5512 5515 5518 5520 5522 5524 5525 5526 5527 5527 5527 5527 5527 5528 5529 5529 5532 5535 5532 5531 5530 5531 5530 5529 5529 5529 5529
5468 5469 5471 5473 5474 5475 5477 5478 5480 5482 5484 5486 5488 5491 5495 5498 5501 5504 5506 5509 5512 5513 5515 5516 5517 5517 5517 5517 5517 5518 5519 5520 5522 5524 5523 5521 5521 5521 5520 5520 5519 5519 5519
5455 5456 5458 5460 5462 5464 5465 5466 5468 5470 5472 5474 5477 5480 5484 5487 5489 5492 5495 5498 5500 5503 5504 5506 5507 5508 5508 5508 5509 5510 5510 5511 5513 5513 5514 5512 5511 5509 5508 5509 5509 5509 5509
5442 5444 5446 5448 5450 5452 5453 5454 5456 5458 5461 5463 5465 5469 5473 5475 5478 5481 5484 5486 5488 5491 5493 5495 5497 5499 5500 5500 5500 5501 5501 5502 5503 5503 5504 5502 5501 5499 5498 5499 5499 5499 5499
5431 5433 5435 5437 5438 5439 5441 5443 5445 5447 5449 5451 5454 5457 5461 5464 5467 5470 5473 5476 5478 5480 5482 5484 5487 5489 5490 5490 5492 5492 5492 5492 5493 5493 5495 5493 5490 5489 5489 5489 5489 5489 5489
5419 5421 5423 5425 5426 5428 5430 5431 5433 5435 5437 5439 5442 5446 5450 5453 5457 5459 5462 5465 5468 5470 5472 5474 5476 5478 5479 5481 5482 5482 5482 5482 5483 5484 5485 5485 5484 5481 5479 5478 5477 5477 5479
5408 5410 5412 5414 5415 5417 5419 5421 5422 5424 5426 5428 5431 5435 5439 5443 5445 5448 5451 5454 5457 5460 5463 5465 5466 5468 5469 5471 5472 5472 5472 5472 5473 5474 5475 5477 5476 5474 5470 5468 5467 5467 5468
5398 5400 5401 5402 5404 5406 5409 5411 5412 5414 5415 5417 5420 5424 5428 5432 5434 5437 5440 5443 5447 5450 5452 5455 5456 5458 5459 5460 5462 5463 5463 5463 5463 5463 5465 5467 5465 5463 5460 5459 5457 5454 5454
5388 5390 5391 5392 5394 5396 5399 5401 5403 5404 5406 5407 5410 5413 5417 5421 5423 5426 5429 5433 5437 5441 5443 5445 5446 5448 5450 5451 5452 5453 5453 5453 5452 5453 5454 5455 5454 5452 5449 5447 5445 5444 5445
5379 5380 5381 5383 5385 5388 5390 5392 5393 5395 5397 5398 5401 5404 5407 5411 5414 5416 5419 5424 5429 5432 5434 5436 5437 5438 5439 5440 5441 5443 5443 5443 5442 5443 5444 5444 5443 5442 5440 5438 5436 5436 5435
5369 5370 5372 5374 5376 5379 5381 5382 5384 5386 5388 5391 5393 5396 5399 5402 5405 5407 5411 5415 5419 5422 5424 5427 5428 5428 5429 5430 5430 5432 5433 5432 5432 5432 5433 5433 5432 5430 5429 5427 5426 5425 5425
5361 5362 5364 5366 5368 5370 5372 5374 5376 5378 5380 5382 5385 5388 5391 5393 5396 5398 5402 5405 5408 5412 5415 5417 5418 5418 5418 5419 5419 5421 5420 5419 5420 5421 5421 5421 5420 5419 5418 5416 5415 5413 5413
5353 5355 5357 5358 5360 5362 5364 5366 5368 5369 5372 5374 5377 5380 5382 5385 5387 5389 5393 5396 5398 5401 5405 5407 5407 5407 5407 5407 5408 5408 5408 5409 5409 5410 5410 5409 5408 5407 5405 5405 5403 5402 5401
5347 5348 5349 5351 5353 5354 5356 5358 5359 5362 5364 5366 5369 5371 5374 5376 5378 5380 5383 5386 5388 5390 5393 5394 5395 5395 5395 5395 5396 5396 5397 5397 5398 5398 5398 5397 5395 5394 5394 5394 5393 5392 5392
5340 5341 5342 5343 5345 5347 5348 5350 5352 5354 5355 5357 5360 5362 5365 5368 5370 5371 5373 5376 5378 5380 5382 5383 5384 5384 5384 5384 5384 5384 5384 5385 5385 5385 5385 5384 5384 5384 5384 5384 5384 5384 5384
5333 5334 5335 5337 5339 5340 5342 5343 5344 5345 5347 5349 5351 5354 5357 5359 5361 5363 5365 5367 5368 5370 5371 5373 5374 5374 5374 5374 5374 5374 5374 5374 5374 5375 5374 5374 5375 5375 5375 5375 5376 5377 5378
5326 5327 5328 5330 5331 5333 5334 5336 5338 5340 5340 5342 5345 5347 5349 5352 5354 5356 5358 5359 5360 5361 5362 5363 5364 5364 5364 5364 5365 5365 5365 5365 5365 5365 5365 5366 5366 5367 5367 5368 5369 5370 5370
5320 5320 5321 5323 5324 5325 5327 5329 5330 5333 5335 5337 5338 5340 5342 5344 5346 5348 5349 5350 5351 5352 5353 5354 5354 5355 5355 5355 5356 5357 5357 5357 5357 5357 5357 5358 5358 5360 5361 5362 5363 5363 5364
5314 5315 5316 5318 5319 5319 5320 5322 5323 5325 5327 5330 5332 5333 5334 5336 5338 5339 5340 5342 5343 5344 5344 5345 5346 5347 5347 5348 5349 5349 5349 5349 5350 5350 5351 5351 5352 5353 5354 5355 5356 5356 5357
5309 5309 5310 5312 5313 5314 5315 5316 5317 5318 5320 5322 5324 5325 5326 5327 5329 5331 5332 5333 5334 5335 5336 5337 5338 5339 5340 5341 5342 5342 5343 5343 5344 5344 5345 5345 5346 5347 5348 5349 5350 5350 5351
5304 5305 5305 5307 5308 5308 5309 5310 5311 5312 5313 5315 5316 5317 5319 5320 5321 5323 5324 5325 5326 5328 5329 5331 5331 5332 5333 5334 5336 5337 5338 5339 5339 5340 5340 5341 5342 5343 5344 5344 5345 5345 5346
5299 5299 5300 5301 5302 5303 5303 5304 5305 5306 5307 5307 5309 5310 5311 5312 5314 5315 5317 5318 5320 5322 5323 5324 5326 5327 5328 5330 5331 5332 5334 5335 5336 5336 5337 5337 5338 5339 5340 5340 5341 5341 5340
5293 5294 5295 5295 5296 5297 5297 5298 5299 5300 5300 5301 5302 5303 5305 5306 5308 5309 5311 5312 5314 5316 5318 5319 5321 5323 5324 5326 5327 5329 5331 5332 5333 5333 5333 5334 5334 5334 5335 5335 5335 5335 5334
5288 5289 5289 5290 5291 5292 5292 5292 5293 5293 5294 5295 5297 5298 5299 5300 5302 5304 5305 5307 5309 5311 5313 5315 5317 5319 5321 5322 5324 5325 5327 5328 5329 5329 5330 5330 5330 5330 5330 5330 5329 5328 5328
5283 5283 5283 5284 5285 5286 5286 5287 5287 5288 5289 5290 5292 5293 5294 5295 5297 5299 5301 5303 5305 5307 5309 5311 5313 5316 5318 5320 5321 5322 5324 5324 5325 5325 5326 5326 5326 5326 5325 5324 5324 5323 5322
5278 5277 5278 5278 5279 5279 5280 5281 5282 5283 5284 5285 5287 5288 5289 5290 5292 5294 5296 5298 5300 5302 5304 5307 5309 5312 5314 5316 5318 5319 5320 5321 5321 5322 5322 5322 5322 5321 5321 5320 5319 5318 5316